Miscellaneous Local Product
Issued by NWS North Platte, NE

Home | Current Version | Previous Version | Graphics & Text | Print | Product List | Glossary On
Versions: 1 2 3 4 5 6 7 8 9 10 11 12 13 14 15 16 17 18 19 20 21 22 23 24 25 26 27 28 29 30 31 32 33 34 35 36 37 38 39 40 41 42 43 44 45 46 47 48 49 50
989
AXUS43 KLBF 140010
MISLBF


WESTERN AND NORTH CENTRAL NEBRASKA HOURLY WEATHER ROUNDUP
NATIONAL WEATHER SERVICE NORTH PLATTE NE
600 PM CST SAT FEB 13 2016

NOTE: "FAIR" INDICATES FEW OR NO CLOUDS BELOW 12,000 FEET WITH NO
SIGNIFICANT WEATHER AND/OR OBSTRUCTIONS TO VISIBILITY.

NOTE: STATIONS NOT REPORTING VARIABLES SUCH AS SKY/WEATHER OR
PRESSURE ARE PROVIDED BY THE NEBRASKA DEPARTMENT OF
ROADS...RAWS...AND APRS NETWORKS...AND ARE NOT UNDER
NATIONAL WEATHER SERVICE QUALITY CONTROL.

...OBSERVATIONS IN AND NEAR THE EASTERN PANHANDLE OF NEBRASKA...

CITY           SKY/WX    TMP DP  RH WIND       PRES   REMARKS
PINE RIDGE     CLEAR     45  33  63 S10       29.71F
CHADRON        CLEAR     58  24  27 W21G30    29.71F
ALLIANCE       CLOUDY    41  32  70 S10       29.77F
SIDNEY         CLOUDY    40  36  86 SW10      29.86F WCI  33
$$

...OBSERVATIONS IN NORTH CENTRAL NEBRASKA...

CITY           SKY/WX    TMP DP  RH WIND       PRES   REMARKS
VALENTINE      CLOUDY    27  23  85 S17       29.87F WCI  14
THEDFORD       CLOUDY    26  25  95 S18G24    29.92F FOG     WCI  13
AINSWORTH      CLOUDY    25  21  84 S17G23    29.93F WCI  11
O`NEILL        CLOUDY    21  11  66 S21       30.05F WCI   5
ORD            CLOUDY    21   9  59 SE12G22   30.07S WCI   9
BROKEN BOW     CLOUDY    22  16  78 S20G26    30.02F WCI   7
VALENTINE NWR    N/A     24  22  90 S18G25      N/A  WCI  10
BUTTE            N/A     21  14  75 SE20G28     N/A  WCI   6
HALSEY           N/A     23  20  89 S9G20       N/A  WCI  13
CHAMBERS         N/A     20   7  57 S13         N/A  WCI   7
EWING            N/A     18  11  73 S10G17      N/A  WCI   6
$$

...OBSERVATIONS IN SOUTHWEST NEBRASKA AND FAR NORTHEAST COLORADO...

CITY           SKY/WX    TMP DP  RH WIND       PRES   REMARKS
WRAY           FAIR      38  32  79 SE6G18    29.92F WCI  33
HOLYOKE        FAIR      36  32  87 S9        29.90F WCI  29
IMPERIAL       CLOUDY    30  28  92 S12       29.95F WCI  20
OGALLALA       CLOUDY    32  29  88 S12       29.92F WCI  23
NORTH PLATTE   CLOUDY    26  22  84 S16       29.97F WCI  14
MCCOOK         CLOUDY    30  23  75 S12       30.02F HAZE    WCI  20
LEXINGTON      CLOUDY    25  17  70 S13       30.05F WCI  14
STAPLETON        N/A     24  22  91 CALM        N/A
$$

...OBSERVATIONS IN CENTRAL LINCOLN COUNTY AREA...

CITY           SKY/WX    TMP DP  RH WIND       PRES   REMARKS
N.P. AIRPORT   CLOUDY    26  22  84 S16       29.97F WCI  14
N.P. DOWNTOWN    N/A     26  24  92 S7G15       N/A  WCI  18
N.P. SOUTHEAST   N/A     25  23  90 S9G17       N/A  WCI  16
N.P. HILLCREST   N/A     26  25  94 S15G23      N/A  WCI  14
$$

...SOME OBSERVATIONS FROM AROUND THE REGION...

CITY           SKY/WX    TMP DP  RH WIND       PRES   REMARKS
DENVER         CLOUDY    59  17  19 W16       29.96S
LARAMIE        CLEAR     43  12  28 W39G49    29.93S
CHEYENNE       CLOUDY    50  17  27 W26G41    29.91F
SCOTTSBLUFF    CLOUDY    58  16  19 W23G40    29.81F
RAPID CITY     RAIN      39  35  86 NW40G52   29.80R WCI  26
BISMARCK       LGT SNOW  18  12  77 SE16      29.94S VSB 1   WCI   3
PIERRE         CLOUDY    27  23  85 SE24      29.85F WCI  12
WINNER         CLOUDY    29  19  66 S21       29.92F WCI  16
SIOUX FALLS    CLOUDY    11   3  70 SE14      30.21F WCI  -5
OMAHA          CLOUDY    19   3  49 SE20      30.30F WCI   3
GRAND ISLAND   CLOUDY    20   9  62 SE16      30.14F WCI   6
KANSAS CITY    CLOUDY    20   3  48 E16       30.31F WCI   6
WICHITA        CLOUDY    41  11  29 SE14      30.14F
OKLAHOMA CITY  PTCLDY    54  34  46 SE17      30.07F
LIBERAL        CLEAR     61  34  36 SE16      29.90S
HAYS           CLOUDY    36  12  38 SE16      30.08F WCI  26
GOODLAND       CLOUDY    31  29  92 S12       29.97S FOG     WCI  22
$$




USA.gov is the U.S. government's official web portal to all federal, state and local government web resources and services.